FENGYUN 1C DEB, 36211

Orbit data source: Space-Track

FENGYUN 1C DEB, 36211 is space debris in SSO originally from a launch on Mon, 10 May 1999 UTC launched from the Taiyaun Space Center, China (TSC). Fengyun 1C debris stems from the Chinese weather satellite Fengyun-1C, which was intentionally destroyed by a Chinese anti-satellite missile in 2007. This event dramatically increased the amount of space debris, with thousands of trackable fragments posing hazards to satellites and human spaceflight. The Fengyun 1C debris cloud has become a focal point in discussions about space sustainability and the need for international regulations to prevent the creation of new debris.

Loading next visibility...
Identifier
36211, 1999-025DUL
Orbit
SSO
Country
Flag of CNCN / PRC
Related business
Manufacturer
Unknown
Mission
Spacecraft
Bus & Motor
Unknown
Mass
Unknown
Launch date (UTC)
1999-05-10 (27 years ago)
Launch vehicle
Unknown
Launch site
Taiyaun Space Center, China (TSC)
Object type
Payload
Rocket body
Debris
Shape & HBR
Unknown shape, 0.1 m
Radar Cross Section
Small (<0.1 m²)

Expand to show TLE details & history
Last TLE update: 22 hours ago

TLE from 22 hours ago
0 FENGYUN 1C DEB
1 36211U 99025DUL 26163.70413694  .00002294  00000-0  66460-3 0  9992
2 36211  98.5133 157.0218 0266677  55.6597 306.9508 14.26665840969635
Epoch: 2026-06-12T16:53Z
TLE epoch observation values (Epoch: 2026-06-12T16:53:57.431Z)
Latitude
-0.00004°
Longitude
2.50275°
Altitude
694.029 km
Speed
7.567 km/s
True Right ascension
10h 28m 05s
True Declination
0° 00' 00"
Sunlit
Object was in daylight at epoch
Visualization orbit readout
Latitude
Unknown
Longitude
Unknown
Altitude
Unknown
Speed
Unknown
Apparent Right ascension
Unknown
Apparent Declination
Unknown
Sunlit
N/A
Visualization observer readout
Local Sidereal Time
01:24:45
Azimuth
Unknown
Elevation
Unknown
Doppler factor
Unknown
Orbital elements
Apogee altitude
991.46 km
Perigee altitude
608.609 km
Semi-major axis
7,178.172 km
Eccentricity
0.02667
Inclination
98.5133°
RAAN
157.0218°
Arg. of periapsis
55.6597°
True anomaly
304.45957°
Mean anomaly
306.9508°
Eccentric anomaly
305.71014°
Mean motion
3.5688 °/min
Orbital period
100.87 mins
BSTAR
0.0006646
Loading maneuver chart data...
Computing Atmospheric mass density...

Documentation

Showing up to 5 results
|